Regional Weather Roundup
Issued by NWS Newport/Morehead, NC

Current Version | Previous Version | Text Only | Print | Product List | Glossary Off
Versions: 1 2 3 4 5 6 7 8 9 10 11 12 13 14 15 16 17 18 19 20 21 22 23 24 25 26 27 28 29 30 31 32 33 34 35 36 37 38 39 40 41 42 43 44 45 46 47 48 49 50
000 ASUS42 KMHX 041813 RWRMHX WEATHER ROUNDUP FOR EASTERN NORTH CAROLINA NATIONAL WEATHER SERVICE NEWPORT/MOREHEAD CITY NC 200 PM EDT SAT JUL 04 2015 NOTE: "FAIR" INDICATES FEW OR NO CLOUDS BELOW 12,000 FEET WITH NO SIGNIFICANT WEATHER AND/OR OBSTRUCTIONS TO VISIBILITY NCZ015>017-031-032-045>047-102-103-041900- NORTH COAST CITY SKY/WX TMP DP RH WIND PRES REMARKS EDENTON N/A 87 71 58 W10 29.95F ELIZABETH CITY MOSUNNY 86 71 60 SW15G23 29.93F KITTY HAWK PTCLDY 91 70 50 W13G20 29.94S MANTEO PTSUNNY 87 71 59 W12G22 29.95S $$ NCZ045>047-081-094-103-104-041900- CENTRAL COAST CITY SKY/WX TMP DP RH WIND PRES REMARKS FRISCO MOSUNNY 82 71 69 SW16G28 29.99S SWANQUARTER N/A 90 N/A N/A SW18G29 29.91F $$ NCZ095-097-098-100-101-041900- SOUTHERN COAST CITY SKY/WX TMP DP RH WIND PRES REMARKS BEAUFORT PTSUNNY 85 75 72 SW25G31 30.01F CEDAR ISLAND N/A 88 N/A N/A S15G24 30.03S JACKSONVILLE MOSUNNY 88 66 48 W18G25 30.01S PINEY ISLAND MOCLDY N/A N/A N/A SW23G30 29.99F WILMINGTON SUNNY 91 69 48 W16 30.03S $$ NCZ011>013-027>030-043-044-078>080-089-090>093-098-041900- COASTAL PLAIN CITY SKY/WX TMP DP RH WIND PRES REMARKS AHOSKIE MOSUNNY N/A N/A N/A W3 29.95S CLINTON MOSUNNY 87 71 58 SW13 30.01S ELIZABETHTOWN MOSUNNY 87 67 50 W10G20 30.03S GOLDSBORO MOSUNNY 88 71 55 SW17G29 29.96S GREENVILLE MOSUNNY 84 68 58 NW20G30 29.99R THUNDER HAVELOCK PTSUNNY 92 65 40 W21G36 30.01S KENANSVILLE SUNNY 87 66 48 SW13G21 30.01F KINSTON MOSUNNY 90 68 48 SW18G24 29.98F NEW BERN PTSUNNY 88 69 53 SW12G25 30.00S RICHLANDS PTSUNNY 90 66 45 SW15G26 30.01S ROCKY MOUNT MOSUNNY 82 75 79 SW10 29.97R WASHINGTON MOSUNNY 85 71 62 SW15G21 29.96F WHITEVILLE SUNNY 88 67 50 SW12G20 30.04S $$ AMZ130-135-150-152-154-156-158-170-250-252-270-ANZ085-086-088-633-658-670-041900- MARINE OBSERVATIONS STATION/POSITION TIME TEMP WIND PRES WAVE SWELL AIR SEA DIR/SP/G HT/PER HT/PER (UTC) (F) (DEG/KT/KT) (MB) (FT/S) (FT/S) CHESAPEAKE LIGHT 1800 79 290/ 10/ 11 1013.9 64 E VA BEACH 1750 77 76 240/ 10/ 12 1013.4 6/ 8 5/ 8 DUCK 1700 82 68 250/ 15/ 19 N/A 2 E DUCK 1711 76 N/A 2/15 OREGON INLET 1700 83 81 220/ 14/ 17 1014.2 13E OREGON INLT 1800 69 N/A 4/ 8 HATTERAS CG 1700 83 77 210/ 12/ 18 1015.2 DIAMOND BUOY 1750 81 82 230/ 25/ 31 1015.3 7/ 7 2/14 CAPE LOOKOUT 1800 83 230/ 15/ 21 1016.4 BEAUFORT LAB 1700 83 80 220/ 11/ 16 1015.9 30 SE NEW RVR IN 1708 80 80 240/ 19/ 25 1017.3 27 SE WRIGHTSVLE 1700 80 230/ 16/ 19 N/A 5 SE WRIGHTSVLE 1708 80 78 210/ 16/ 21 1017.0 225 S CAPE HAT 1750 82 80 240/ 10/ 12 1021.6 5/ 6 5/ 6 41 SE CHARLESTON 1750 81 82 230/ 12/ 14 1018.6 4/ 9 3/ 9 $$

USA.gov is the U.S. government's official web portal to all federal, state and local government web resources and services.